Aérodrome :
LOGIN :

S'inscrire | Disclaimer

   EN    FR    IT 

 










Légende :    VFR   VFR Marginal   IFR   IFR Intensif   IFR Très Intensif
Visi : 
Plafond : 
>= 8 km
>= 3000ft
5 à 8 km
1000 à 3000 ft
1500m à 5 km
500 à 1000 ft
800 à 1500m
200 à 500 ft
< 800m
< 200 ft
Symboles :   Orages  Brouillard  Fortes neiges  Fortes précipitations  Vent > 20 kt
SIGMETs :   Divers  Orages  Givrage  Turbulence  Onde Orograph.  Cendres Volcan.







- Altitude de l'aérodrome : 1989 ft
- Code IATA : KLV


LKKV - Karlovy Vary

DERNIER METAR :
  • 281730Z 24003KT CAVOK 15/M01 Q1021

METARs EXPIRÉS :
  • 281700Z 24005KT 210V270 CAVOK 16/M01 Q1021
  • 281630Z 25007KT 230V290 CAVOK 17/M01 Q1021
  • 281600Z 27009KT 220V290 CAVOK 17/M01 Q1021
  • 281530Z 27009KT 240V300 CAVOK 18/M01 Q1021
  • 281500Z 28009KT 220V300 CAVOK 18/M01 Q1021

TAF TAF LKKV
Valide du 28 à 18h jusqu'au 30 à 00h UTC


281700Z 2818/3000 26006KT CAVOK
BECMG 2910/2912 SCT030
TEMPO 2908/2918 27010G22KT
TEMPO 2912/3000 BKN026
Pas de NOTAMs connus pour ce terrain.



MET'MAP, la Météo Aéronautique d'un coup d'oeil ! - Copyright ORBIFLY Décembre 2007 - Disclaimer

ORBIFLY MET'MAP TEAM :

Programmation & Développement : Alexandra Zaïnal
Conception & Développement : Baudouin d'Aumeries
Co-Programmation & Développement : Marc-Olivier Méhu
Soutien technique & logistique : Manuel Goepfert

Contact : metmap@orbifly.com




SOURCES & CREDITS :

   NOAA